{"data":{"norad_id":66948,"intl_designator":"2025-286Z","name":"STARLINK-36116","alt_names":[],"object_type":"PAYLOAD","status":"ACTIVE","operator":null,"country":"US","launch_date":"2025-12-07","launch_site_code":"AFWTR","launch_vehicle":null,"mission":null,"orbit_class":"UNKNOWN","rcs_meters":null,"size_class":null,"mass_kg":null,"dimensions":null,"purposes":["comms"],"wikipedia_slug":null,"has_3d_model":false,"image_url":null,"decayed_at":null,"tle_current":{"epoch":"2026-09-20T10:30:04.381344Z","epoch_age_seconds":86731,"freshness":"FRESH","line1":"1 66948U 25286Z   26263.43755071  .00018225  00000+0  54902-3 0  9997","line2":"2 66948  53.1595 170.3116 0001505  88.3193 271.7982 15.34411629 45275","mean_motion":15.34411629,"eccentricity":0.0001505,"inclination_deg":53.1595,"raan_deg":170.3116,"arg_perigee_deg":88.3193,"mean_anomaly_deg":271.7982,"bstar":0.00054902,"rev_number":4527,"period_min":93.847046827876,"perigee_km":461.63913533237,"apogee_km":463.69821784102,"semimajor_km":6840.8056765867,"source":"CELESTRAK","updated_at":"2026-09-21T09:00:36.060747Z"}}}